Погода Мыс Болванский

Погода Мыс Болванский : погода сейчас, прогноз погоды и архив. Всё, что Вы хотите узнать о погоде Мыс Болванский!

Поиск расширенной информации на нашем сайте:

Полезная информация: Эта компания taganrog.delinet.ru придала наглядности наработки взято отсюда

Другие новости

Новости СМИ2

Главная страница сайта

Новости сайта

02.10.2013

Напоминаем, что на нашем новом сайте вы можете получить высокодетализированные прогнозы погоды по пунктам России, СНГ и мира (включающие важные для авиации метеовеличины, такие как направление и скорость ветра, видимость, явления погоды, количество и форма облачности, нижняя и верхняя граница облачности), а также ознакомиться с разнообразными материалами по авиационной метеорологии и подборкой полезных ссылок на эту тему.

Сайт Метеоцентр.Азия посвящён разработке технологий оптимизации авиаметеорологического обслуживания, включая проектирование и перспективное создание нескольких автоматизированных авиаметеорологических систем:
- система выпуска высокодетальных прогностических карт явлений погоды для нижнего воздушного пространства по России и ближнему зарубежью;
- система верификации прогнозов TAF (выпускаемых синоптиками официальных АМСГ РФ и ближнего зарубежья) и AUTOTAF (выпускаемых сайтом Метеоцентр.Азия) - выявление ошибок, онлайн-сопоставление с фактической погодой METAR, автоматическое внесение коррективов в прогнозы при резком отклонении фактической погоды от прогноза, подсчёт оправдываемости прогнозов по элементам и в целом;
- система обработки, анализа и отображения авиаметеорологической информации для применения провайдерами метеорологической информации.

Рекомендуем: Где купить металлический шкаф litpolmebel.com.

Погода Мыс Болванский - сегодня

Время (UTC), дата Ветер
(°,м/с) 
Видим.   Явления Облачность Т
(°С)
Тd
(°С)
f(%) Тe
(°С)
Pmin
(гПа)
dP
(гПа)
Po
(мм)
O2
(г/м3)
Тmin Tmax R s Состояние
почвы
03 20.05.17 140 (ЮВ) 10 км    9/0 средняя 
[Ac trans]
-4.4 -7.8 77 -8  1013.1  -1.8  759  312  -10.3      неравномерный
мокрый или
старый снег
100% 
06 20.05.17 130 (ЮВ) 10 км  позёмок  10/0 средняя 
[As trans]
-3.3 -5.2 87 -8  1011  -2.1  757  309           
09 20.05.17 130 (ЮВ) 9-12{12}  10 км  позёмок  10/10 1170 м 
[Sc]
-2.5 -5 83 -8  1009.5  -1.4  756  308           
12 20.05.17 130 (ЮВ) 9-12{13}  10 км  позёмок  10/10 1020 м 
[Sc]
-2.5 -5.5 80 -8  1008.5  -1.1  755  308           
15 20.05.17 130 (ЮВ) 9-12{13}  10 км  позёмок  10/10 900 м 
[Sc]
-2.4 -5.3 80 -8  1007.6  -0.8  755  307    -2       
18 20.05.17 110 (В) 7{13}  10 км  позёмок  10/0 средняя 
[Ac und]
-2.7 -4.7 86 -7  1007.3  -0.4  754  308           
21 20.05.17 100 (В) 8{10}  10 км  позёмок  9/0 средняя, верхняя 
[Ac trans|Ci fib]
-4.7 -7.6 80 -10  1006.9  -0.4  754  310           
00 21.05.17 090 (В) 6{10}  20000 м  позёмок  8/0 средняя, верхняя 
[Ac trans|Ci fib]
-5.8 -8 84 -10  1006.6  -0.3  754  311           
03 21.05.17 060 (СВ) 8-10{10}  20000 м  позёмок  9/0 средняя 
[Ac trans]
-5.5 -7.1 88 -11  1006.6  754  311  -5.8      неравномерный
мокрый или
старый снег
100% 
06 21.05.17 060 (СВ) 9-12{13}  10 км  позёмок  10/10 450 м 
[Sc]
-3.6 -6.1 83 -9  1006.1  -0.5  754  308           
09 21.05.17 070 (В) 10-12{14}  20000 м    3/3 300 м 
[Sc]
-2.8 -6.6 75 -8  1006.9  0.8  754  308           
12 21.05.17 080 (В) 10-15{15}  20000 м    4/4 600 м 
[Sc]
-3.2 -7.7 71 -9  1008.9  756  309           
15 21.05.17 080 (В) 10-13{15}  10 км    10/10 540 м 
[Sc]
-4.6 -6.7 85 -11  1010.3  1.4  757  311    -2.6       
18 21.05.17 070 (В) 10-13{14}  10 км    10/10 540 м 
[Sc]
-5.4 -8.4 79 -12  1011  0.6  757  312           
21 21.05.17 070 (В) 7{13}  10 км    10/10 500 м 
[Sc]
-5.4 -8.1 81 -10  1011.4  0.4  758  312           
00 22.05.17 060 (СВ) 8-11{11}  10 км    10/10 540 м 
[Sc]
-5.4 -8.7 78 -11  1011.5  0.1  758  312           
03 22.05.17 050 (СВ) 7-10{11}  10 км    10/10 540 м 
[Sc]
-5.3 -8.6 78 -10  1011.9  0.4  758  312  -5.5      неравномерный
мокрый или
старый снег
100% 
06 22.05.17 050 (СВ) 4{10}  10 км    10/10 600 м 
[Sc]
-4.6 -7.9 78 -8  1011.8  758  311           
09 22.05.17 040 (СВ) 10 км    10/10 800 м 
[Sc]
-4.3 -8 75 -8  1012.2  0.3  758  311           
12 22.05.17 030 (СВ) 10 км    10/10 870 м 
[Sc]
-4.3 -7.5 78 -7  1012.3  0.1  758  311           
15 22.05.17 020 (С) 10 км    10/10 1000 м 
[Sc]
-4.2 -7.7 77 -5  1011.8  -0.5  758  311    -4.2       
18 22.05.17 070 (В) 20000 м    10/10 870 м 
[Sc]
-4.8 -7.9 79 -6  1010.7  -0.5  757  311           
21 22.05.17 190 (Ю) 20000 м    10/10 870 м 
[Sc]
-4.9 -10 67 -4  1009.8  -0.9  756  311           
00 23.05.17 160 (Ю) н/о    н/о 
-5.4 -9.4 73 -8  1008.7  -1.1  755  311           
03 23.05.17 150 (ЮВ) 10 км    10/10 900 м 
[Sc]
-5.3 -9 75 -9  1007.7  -1  755  311  -5.6      неравномерный
мокрый или
старый снег
100% 
Время (UTC), дата Ветер
(°,м/с) 
Видим.   Явления Облачность Т
(°С)
Тd
(°С)
f(%) Тe
(°С)
Pmin
(гПа)
dP
(гПа)
Po
(мм)
O2
(г/м3)
Тmin Tmax R s Состояние
почвы

Для получения пояснительной информации подведите курсор к названию столбца.

ПОГОДА Мыс Болванский - архив

Всё, что Вы хотите узнать о погоде Мыс Болванский - удобно и подробно!

Выберите нужную дату (начиная с 1 января 2015* года) и нажмите кнопку "Найти".
Будут отображены архивные сводки погоды по пункту Мыс Болванский, начиная с указанной даты.


Отображать данные в формате CSV (для использования в таблицах Excel)


Внимание! Наш архив погоды предназначен исключительно для личного некоммерческого использования в познавательных целях. Если Вам необходимы официальные справки о состоянии погоды (для производственных, юридических, коммерческих и т.п. целей), обращайтесь в органы Росгидромета.

*Примечание: данная дата относится к архиву по метеостанциям СССР (Россия, СНГ, Балтия).
Архив по метеостанциям Зарубежной Европы и Азии (кроме Китая) хранится 10 дней, по другим регионам земного шара (Китай, Африка, Америка, Австралия, Океания) - 1 день.

Мыс Болванский - район местоположения метеостанции


Название, широта, долгота, высота метеостанции:
Мыс Болванский 70.4°ш. 59.1°д. 13 м над ур. моря [Российская Федерация]

Дополнительная информация

В oтличие oт бoльшинства пoгoдных сайтoв мы публикуем пoдрoбную метеoинфoрмацию в детальнoм прoфессиoнальнoм фoрмате.

Характеристики температуры и влажнoсти вoздуха измеряются на высoте 2 м в тени вдали oт зданий и деревьев.
Скoрoсть ветра измеряется на высoте 10 м (на урoвне рoста челoвека скoрoсть ветра ниже в 1.5-2 раза). Если метеoстанция нахoдится в гoрoде или в лесу, тo скoрoсть ветра занижена на 2-4 м/с пo сравнению с oткрытым местoм. Скoрoсть ветра над акватoриями крупных рек и oзёр, а также на вершинах хoлмoв на 2-5 м/с выше, чем в oбычных услoвиях.
Атмoсфернoе давление в разных тoчках местнoсти мoжет значительнo oтличаться oт давления на метеoстанции, в зависимoсти oт услoвий рельефа (при пoдъёме на 10 м давление пoнижается примернo на 1 мм рт.ст.).